Location: Dammartin
(48.9032°N, 1.6195°E)
Time: 11:55:10
(UTC+00:00)

SO-50 - Visible Passes

Search period start: 05 December 2023 00:00
Search period end: 15 December 2023 00:00
Orbit: 601 x 670 km, 64.6° (Epoch: 04 December)

Date Brightness Start Highest point End Pass type
(mag) Time Alt. Az. Time Alt. Az. Time Alt. Az.
05 Dec ? 04:56:35 27° N 04:56:35 27° N 04:59:12 10° NNE visible
05 Dec ? 06:34:06 10° NW 06:36:31 14° NNW 06:38:56 10° NNE visible
06 Dec ? 03:41:23 12° NE 03:41:23 12° NE 03:41:41 10° NE visible
06 Dec ? 05:18:51 21° NNW 05:18:51 21° NNW 05:21:34 10° NNE visible
07 Dec ? 04:03:34 13° NNE 04:03:34 13° NNE 04:04:11 10° NNE visible
07 Dec ? 05:41:03 16° NNW 05:41:03 16° NNW 05:43:54 10° NNE visible
08 Dec ? 04:25:42 14° NNE 04:25:42 14° NNE 04:26:33 10° NNE visible
08 Dec ? 06:03:11 12° NNW 06:04:14 13° NNW 06:06:19 10° NNE visible
09 Dec ? 04:47:47 14° N 04:47:47 14° N 04:48:53 10° NNE visible
09 Dec ? 06:26:02 10° NNW 06:27:34 11° N 06:29:06 10° NNE visible
10 Dec ? 05:09:50 13° N 05:09:50 13° N 05:11:13 10° NNE visible
10 Dec ? 06:49:08 10° NNW 06:50:53 12° N 06:52:38 10° NNE visible
11 Dec ? 05:31:51 12° N 05:31:56 12° N 05:33:43 10° NNE visible
12 Dec ? 05:53:50 10° NNW 05:55:15 11° N 05:56:45 10° NNE visible
13 Dec ? 04:38:20 10° NNE 04:38:20 10° NNE 04:38:31 10° NNE visible
13 Dec ? 06:16:31 10° NNW 06:18:32 13° NNE 06:20:33 10° NE visible
14 Dec ? 05:00:17 11° N 05:00:17 11° N 05:01:09 10° NNE visible
14 Dec ? 06:38:55 10° NNW 06:41:45 16° NNE 06:44:32 10° ENE visible
